Search the data

BODC Cruise Metadata Report for FRV Scotia (749S) cruise 0792S

Introduction

This report collates information from the BODC cruise inventory and oceanographic databases. It presents

Cruise Inventory Information

Long name FRV Scotia (749S) cruise 0792S
Short name 0792S
Objectives and Narrative 1. To collect hydrographic and chemistry (silicate) samples using water bottles and CTD profilers along the Fair Isle-Munken, Faroe and the Nolso, Faroe-Flugga, Shetland sections.
2. To carry out hydrographic studies, including the use of the vessel mounted ADCP in the northern North Sea along the Jonsis Line, along the EC line and at selected stations as part of the initial study of the Scottish North Sea coastal zone.
3. To collect water samples for radio-caesium analysis by MAFF Lowestoft.
Ship FRV Scotia
Departure Port Aberdeen, United Kingdom
Departure Date 1992-06-13
Arrival Port Aberdeen, United Kingdom
Arrival Date 1992-06-22
Principal Scientist(s) Rodney Payne (Scottish Office Agriculture and Fisheries Department Aberdeen Marine Laboratory)
Responsible Organisation
Associated Project(s)
IHB Sea Areas Visited North Sea, North East Atlantic Ocean (limit 40W)
Marsden Squares Visited 181;3/216;3/217;1/217;2/252;1
Work Area Description Scottish North Sea
Work Area Bounding Polygon 55N,10W; 65N,10W; 65N,5E; 55N,5E; 55N,10W
Southern Limit 55N
Northern Limit 65N
Western Limit 10W
Eastern Limit 5E

Cruise Inventory Datasets

Physical oceanography  
CTD stations Quantity: number of stations = 79
Description: NBIS  
Current profiler (eg ADCP) Quantity: activity duration in hours = 24
Description: hour survey  
Surface measurements underway (T,S) Quantity: number of measurements = 1360
Description:  
Water bottle stations Quantity: number of stations = 24
Description: deep stations  
Chemical oceanography  
Nitrate Quantity: number of samples = 12
Description:  
Phosphate Quantity: number of samples = 12
Description:  
Silicate Quantity: number of samples = 36
Description:  
Biology and fisheries  
Phytoplankton pigs (eg chlorophyll, fluorescence) Quantity: number of samples = 12
Description:  

Cruise Inventory Mooring/Buoy Operations

No information on datasets is currently available

Summary of BODC Data Holdings for the Cruise

National Oceanographic Database

Summary

# Series Instrument Description Parameters
79 CTD/STD cast Density of the water column
Electrical conductivity of the water column
Salinity of the water column
Temperature of the water column
Vertical spatial coordinates

Note: Parameter terms are taken from the BODC Parameter Discovery Vocabulary XML (SKOS)

Full List

BODC Reference Instrument Description Date/Time Location  
414779 CTD/STD cast 1992-06-13 15:18Z 57° 48' N, 2° 0' W Click for more
414780 CTD/STD cast 1992-06-13 16:34Z 57° 52' N, 1° 45' W Click for more
414792 CTD/STD cast 1992-06-13 17:59Z 57° 58' N, 1° 30' W Click for more
414811 CTD/STD cast 1992-06-13 19:01Z 58° 3' N, 1° 16' W Click for more
414823 CTD/STD cast 1992-06-13 20:19Z 58° 7' N, 1° 0' W Click for more
414835 CTD/STD cast 1992-06-13 21:19Z 58° 12' N, 0° 45' W Click for more
414847 CTD/STD cast 1992-06-13 22:19Z 58° 17' N, 0° 30' W Click for more
414859 CTD/STD cast 1992-06-13 23:20Z 58° 22' N, 0° 15' W Click for more
414860 CTD/STD cast 1992-06-14 00:20Z 58° 28' N, 0° 1' W Click for more
414872 CTD/STD cast 1992-06-14 01:25Z 58° 33' N, 0° 14' E Click for more
414884 CTD/STD cast 1992-06-14 02:32Z 58° 38' N, 0° 27' E Click for more
414896 CTD/STD cast 1992-06-14 03:31Z 58° 43' N, 0° 44' E Click for more
414903 CTD/STD cast 1992-06-14 04:42Z 58° 50' N, 1° 0' E Click for more
414915 CTD/STD cast 1992-06-14 05:45Z 59° 0' N, 1° 0' E Click for more
414927 CTD/STD cast 1992-06-14 07:03Z 59° 10' N, 1° 0' E Click for more
414939 CTD/STD cast 1992-06-14 08:16Z 59° 19' N, 0° 59' E Click for more
414940 CTD/STD cast 1992-06-14 09:44Z 59° 17' N, 1° 19' E Click for more
414952 CTD/STD cast 1992-06-14 11:07Z 59° 16' N, 1° 0' E Click for more
414964 CTD/STD cast 1992-06-14 12:14Z 59° 17' N, 0° 40' E Click for more
414976 CTD/STD cast 1992-06-14 13:37Z 59° 16' N, 0° 19' E Click for more
414988 CTD/STD cast 1992-06-14 14:46Z 59° 16' N, 0° 0' E Click for more
415003 CTD/STD cast 1992-06-14 16:30Z 59° 16' N, 0° 19' W Click for more
415015 CTD/STD cast 1992-06-14 18:03Z 59° 16' N, 0° 42' W Click for more
415027 CTD/STD cast 1992-06-14 19:24Z 59° 16' N, 0° 59' W Click for more
415039 CTD/STD cast 1992-06-14 20:29Z 59° 16' N, 1° 9' W Click for more
415040 CTD/STD cast 1992-06-14 21:39Z 59° 17' N, 1° 19' W Click for more
415052 CTD/STD cast 1992-06-14 22:48Z 59° 16' N, 1° 31' W Click for more
415064 CTD/STD cast 1992-06-15 00:05Z 59° 18' N, 1° 39' W Click for more
415076 CTD/STD cast 1992-06-15 01:14Z 59° 16' N, 1° 48' W Click for more
415088 CTD/STD cast 1992-06-15 02:21Z 59° 17' N, 1° 56' W Click for more
415107 CTD/STD cast 1992-06-15 03:30Z 59° 16' N, 2° 5' W Click for more
415119 CTD/STD cast 1992-06-15 04:38Z 59° 17' N, 2° 14' W Click for more
415120 CTD/STD cast 1992-06-17 15:06Z 60° 49' N, 0° 44' W Click for more
415132 CTD/STD cast 1992-06-17 15:30Z 60° 49' N, 0° 39' W Click for more
415144 CTD/STD cast 1992-06-17 16:10Z 60° 50' N, 0° 30' W Click for more
415156 CTD/STD cast 1992-06-17 16:50Z 60° 50' N, 0° 20' W Click for more
415168 CTD/STD cast 1992-06-17 18:20Z 60° 49' N, 0° 0' W Click for more
415181 CTD/STD cast 1992-06-17 19:34Z 60° 50' N, 0° 18' E Click for more
415193 CTD/STD cast 1992-06-17 20:42Z 60° 50' N, 0° 37' E Click for more
415200 CTD/STD cast 1992-06-17 21:49Z 60° 50' N, 0° 59' E Click for more
415212 CTD/STD cast 1992-06-17 22:59Z 60° 50' N, 1° 18' E Click for more
415224 CTD/STD cast 1992-06-18 00:11Z 60° 49' N, 1° 39' E Click for more
415236 CTD/STD cast 1992-06-18 02:11Z 60° 31' N, 1° 29' E Click for more
415248 CTD/STD cast 1992-06-18 03:15Z 60° 28' N, 1° 15' E Click for more
415261 CTD/STD cast 1992-06-18 04:17Z 60° 28' N, 1° 0' E Click for more
415273 CTD/STD cast 1992-06-18 05:34Z 60° 28' N, 0° 45' E Click for more
415285 CTD/STD cast 1992-06-18 06:33Z 60° 28' N, 0° 30' E Click for more
415297 CTD/STD cast 1992-06-18 07:28Z 60° 29' N, 0° 15' E Click for more
415304 CTD/STD cast 1992-06-18 08:20Z 60° 29' N, 0° 0' E Click for more
415316 CTD/STD cast 1992-06-18 09:14Z 60° 28' N, 0° 14' W Click for more
415328 CTD/STD cast 1992-06-18 10:08Z 60° 28' N, 0° 29' W Click for more
415341 CTD/STD cast 1992-06-18 10:59Z 60° 29' N, 0° 43' W Click for more
415353 CTD/STD cast 1992-06-18 11:42Z 60° 28' N, 0° 55' W Click for more
415365 CTD/STD cast 1992-06-19 15:55Z 60° 0' N, 1° 0' W Click for more
415377 CTD/STD cast 1992-06-19 16:52Z 59° 59' N, 0° 46' W Click for more
415389 CTD/STD cast 1992-06-19 17:53Z 60° 0' N, 0° 30' W Click for more
415390 CTD/STD cast 1992-06-19 18:43Z 59° 59' N, 0° 15' W Click for more
415408 CTD/STD cast 1992-06-19 19:37Z 60° 0' N, 0° 0' W Click for more
415421 CTD/STD cast 1992-06-19 20:25Z 60° 0' N, 0° 14' E Click for more
415433 CTD/STD cast 1992-06-19 21:30Z 60° 0' N, 0° 29' E Click for more
415445 CTD/STD cast 1992-06-19 22:18Z 60° 0' N, 0° 44' E Click for more
415457 CTD/STD cast 1992-06-19 23:07Z 60° 0' N, 0° 52' E Click for more
415469 CTD/STD cast 1992-06-20 00:30Z 60° 0' N, 1° 14' E Click for more
415470 CTD/STD cast 1992-06-20 01:27Z 60° 0' N, 1° 30' E Click for more
415482 CTD/STD cast 1992-06-20 04:48Z 59° 30' N, 1° 0' E Click for more
415494 CTD/STD cast 1992-06-20 06:33Z 59° 30' N, 0° 30' E Click for more
415501 CTD/STD cast 1992-06-20 08:25Z 59° 30' N, 0° 0' W Click for more
415513 CTD/STD cast 1992-06-20 10:15Z 59° 29' N, 0° 29' W Click for more
415525 CTD/STD cast 1992-06-20 12:20Z 59° 30' N, 1° 0' W Click for more
415537 CTD/STD cast 1992-06-20 14:32Z 59° 30' N, 1° 30' W Click for more
415549 CTD/STD cast 1992-06-20 17:27Z 59° 30' N, 1° 59' W Click for more
415550 CTD/STD cast 1992-06-20 19:21Z 59° 30' N, 2° 29' W Click for more
415562 CTD/STD cast 1992-06-20 22:21Z 59° 30' N, 3° 0' W Click for more
415574 CTD/STD cast 1992-06-21 00:42Z 59° 30' N, 3° 28' W Click for more
415586 CTD/STD cast 1992-06-21 03:04Z 59° 24' N, 4° 2' W Click for more
415598 CTD/STD cast 1992-06-21 04:07Z 59° 20' N, 3° 49' W Click for more
415605 CTD/STD cast 1992-06-21 04:45Z 59° 19' N, 3° 42' W Click for more
415617 CTD/STD cast 1992-06-21 05:48Z 59° 17' N, 3° 35' W Click for more
415629 CTD/STD cast 1992-06-21 06:35Z 59° 15' N, 3° 22' W Click for more

Project Database

No data currently held for this cruise in the BODC Project Database

References

Track Charts

Track Chart

Reports

Cruise Report